Stations météo

réclame
Mon MeteoGroup
Junsele A, Suède (2243): Température de l'air & dewpoint: 14.07.2018 22:00:00 - 20.07.2018 22:00:00 (CEST)Junsele A, Suède (2243): Vitesse du vent & gusts: 14.07.2018 22:00:00 - 20.07.2018 22:00:00 (CEST)Junsele A, Suède (2243): Direction du vent: 14.07.2018 22:00:00 - 20.07.2018 22:00:00 (CEST)Junsele A, Suède (2243): reduced air pressure: 14.07.2018 22:00:00 - 20.07.2018 22:00:00 (CEST)Junsele A, Suède (2243): visibility: 14.07.2018 22:00:00 - 20.07.2018 22:00:00 (CEST)Junsele A, Suède (2243): Quantités de précipitations: 14.07.2018 22:00:00 - 20.07.2018 22:00:00 (CEST)
Date & Time tt [°C] td [°C] ff [km/h] ff [knt] fx [km/h] fx [knt] dd ppp [hPa] vv [km] rr [mm]
20.07.2018 22:00:00 22,9 12,9 3 2 16 9 SE 1009,2 50 0,0
20.07.2018 21:00:00 24,6 12,2 4 2 20 11 S 1009,0 50 0,0
20.07.2018 20:00:00 26,3 12,1 9 5 23 12 SSE 1008,4 50 0,0
20.07.2018 19:00:00 27,3 11,0 7 4 21 11 SE 1008,4 46 0,0
20.07.2018 18:00:00 28,1 12,5 2 1 13 7 ESE 1008,2 30 0,0
20.07.2018 17:00:00 28,4 10,6 7 4 16 9 E 1008,4 21 0,0
20.07.2018 16:00:00 30,1 10,1 5 3 14 8 E 1008,7 34 0,0
20.07.2018 15:00:00 28,9 11,1 9 5 20 11 NE 1009,5 30 0,0
20.07.2018 14:00:00 29,1 10,8 8 4 15 8 W 1009,8 37 0,0
20.07.2018 13:00:00 28,5 11,1 4 2 15 8 NNE 1010,4 36 0,0
20.07.2018 12:00:00 26,6 10,8 4 2 11 6 WSW 1011,2 39 0,0
20.07.2018 11:00:00 25,7 12,6 5 3 13 7 W 1011,6 37 0,0
20.07.2018 10:00:00 24,2 17,0 4 2 10 6 WSW 1012,0 27 0,0
20.07.2018 09:00:00 23,2 16,3 3 1 8 4 WSW 1012,3 27 0,0
20.07.2018 08:00:00 20,5 15,9 3 2 12 6 NNE 1012,9 22 0,0
20.07.2018 07:00:00 18,4 16,1 3 2 7 4 NE 1013,3 23 0,0
20.07.2018 06:00:00 14,5 13,9 1 1 5 3 N 1014,0 26 0,0
20.07.2018 05:00:00 13,9 13,7 1 1 5 3 W 1014,2 19 0,0
20.07.2018 04:00:00 13,2 12,9 1 1 3 2 NE 1014,2 24 0,0
20.07.2018 03:00:00 13,3 13,1 2 1 5 3 WSW 1014,4 8 0,0
20.07.2018 02:00:00 14,2 13,8 2 1 5 3 W 1014,4 26 0,0
20.07.2018 01:00:00 15,4 14,4 2 1 6 3 SW 1014,5 34 0,0
20.07.2018 00:00:00 17,2 15,2 2 1 6 4 W 1014,5 47 0,0
19.07.2018 23:00:00 17,9 15,3 3 1 5 3 WSW 1014,4 39 0,0
19.07.2018 22:00:00 19,9 15,6 1 1 6 4 W 1014,0 34 0,0
19.07.2018 21:00:00 21,7 16,5 3 1 8 4 NNE 1013,8 30 0,0
19.07.2018 20:00:00 24,3 16,8 2 1 6 3 NNW 1013,2 31 0,0
19.07.2018 19:00:00 24,4 17,9 3 2 5 3 ESE 1013,1 38 0,0
19.07.2018 18:00:00 24,2 16,7 3 2 8 5 NNW 1013,2 28 0,0
19.07.2018 17:00:00 22,2 18,2 6 3 13 7 E 1013,4 20 0,0
19.07.2018 16:00:00 21,2 18,0 5 3 16 9 E 1013,7 19 0,1
19.07.2018 15:00:00 20,1 18,2 5 3 22 12 E 1013,9 20 0,3
19.07.2018 14:00:00 20,2 16,7 11 6 26 14 ENE 1014,0 14 0,0
19.07.2018 13:00:00 26,2 14,7 8 4 19 11 W 1012,7 29 0,0
19.07.2018 12:00:00 27,0 16,0 9 5 22 12 W 1013,0 28 0,0
19.07.2018 11:00:00 26,2 15,9 8 4 19 11 W 1013,1 24 0,0
19.07.2018 10:00:00 25,5 16,4 3 2 11 6 W 1013,3 27 0,0
19.07.2018 09:00:00 21,0 16,0 5 3 12 7 W 1013,9 24 0,0
19.07.2018 08:00:00 21,2 15,6 4 2 7 4 W 1013,8 22 0,0
19.07.2018 07:00:00 19,8 16,4 4 2 10 6 SW 1014,0 25 0,0
19.07.2018 06:00:00 17,5 16,5 4 2 11 6 WSW 1014,2 17 0,0
19.07.2018 05:00:00 16,6 15,9 4 2 9 5 N 1014,1 15 0,6
19.07.2018 04:00:00 17,3 13,0 3 2 9 5 S 1014,4 31 0,0
19.07.2018 03:00:00 17,3 13,0 6 3 18 10 W 1014,6 32 0,0
19.07.2018 02:00:00 17,5 12,2 2 1 6 3 NE 1014,2 35 0,0
19.07.2018 01:00:00 16,9 11,8 1 1 5 3 NE 1014,4 36 0,0
19.07.2018 00:00:00 18,8 11,9 1 0 8 4 WNW 1014,1 33 0,0
18.07.2018 23:00:00 20,8 11,8 4 2 8 4 E 1013,9 24 0,0
18.07.2018 22:00:00 23,8 10,5 4 2 12 7 SE 1013,5 50 0,0
18.07.2018 21:00:00 27,1 9,5 6 3 18 10 SSE 1013,0 50 0,0
18.07.2018 20:00:00 28,8 8,6 9 5 28 15 SE 1012,7 43 0,0
18.07.2018 19:00:00 30,0 8,5 10 5 26 14 S 1012,6 42 0,0
18.07.2018 18:00:00 30,2 8,0 12 6 32 17 SE 1012,7 36 0,0
18.07.2018 17:00:00 29,7 9,3 11 6 33 18 SE 1012,7 36 0,0
18.07.2018 16:00:00 30,9 9,8 14 8 35 19 ESE 1012,9 41 0,0
18.07.2018 15:00:00 31,0 9,3 13 7 31 17 SSE 1013,2 38 0,0
18.07.2018 14:00:00 31,4 10,2 13 7 35 19 ESE 1013,5 36 0,0
18.07.2018 13:00:00 29,3 11,4 10 5 34 18 SSE 1014,3 37 0,0
18.07.2018 12:00:00 31,2 11,6 13 7 28 15 ESE 1014,3 40 0,0
18.07.2018 11:00:00 29,8 13,1 9 5 18 10 SE 1014,9 43 0,0
18.07.2018 10:00:00 28,0 13,9 3 2 10 5 ESE 1015,6 46 0,0
18.07.2018 09:00:00 24,7 13,6 4 2 8 4 W 1016,4 31 0,0
18.07.2018 08:00:00 23,2 13,1 3 1 5 3 NNE 1016,8 43 0,0
18.07.2018 07:00:00 19,1 13,0 1 0 8 4 SSE 1017,3 50 0,0
18.07.2018 06:00:00 16,0 12,4 3 2 8 5 NE 1017,7 46 0,0
18.07.2018 05:00:00 13,2 11,0 0 0 5 3 NNW 1018,1 50 0,0
18.07.2018 04:00:00 12,2 10,5 1 1 6 3 N - 50 0,0
18.07.2018 03:00:00 12,6 10,7 3 2 8 4 NE 1018,3 50 0,0
18.07.2018 02:00:00 16,5 11,0 4 2 8 4 E 1017,9 50 0,0
18.07.2018 01:00:00 17,8 11,4 5 3 8 5 ESE - 50 0,0
18.07.2018 00:00:00 18,4 11,7 4 2 8 4 E 1017,0 48 0,0
17.07.2018 23:00:00 19,8 12,3 3 1 9 5 E 1016,6 50 0,0
17.07.2018 22:00:00 24,4 11,4 5 3 17 9 ESE 1015,9 50 0,0
17.07.2018 21:00:00 26,7 11,7 6 3 18 10 SE 1015,6 45 0,0
17.07.2018 20:00:00 28,6 11,2 9 5 27 15 SSE 1015,1 50 0,0
17.07.2018 19:00:00 30,0 10,6 7 4 18 10 SSE 1014,8 46 0,0
17.07.2018 18:00:00 29,6 10,2 9 5 26 14 SE 1014,9 46 0,0
17.07.2018 17:00:00 32,0 9,6 6 4 21 12 SSW 1014,7 44 0,0
17.07.2018 16:00:00 30,5 9,4 9 5 21 11 S 1015,2 50 0,0
17.07.2018 15:00:00 29,7 9,3 11 6 23 13 SE 1015,8 39 0,0
17.07.2018 14:00:00 31,3 9,6 9 5 26 14 ESE 1015,9 37 0,0
17.07.2018 13:00:00 30,1 9,1 8 5 24 13 SE 1016,3 32 0,0
17.07.2018 12:00:00 30,0 9,0 6 3 18 10 S 1016,8 33 0,0
17.07.2018 11:00:00 28,3 8,6 6 3 19 11 S 1017,2 35 0,0
17.07.2018 10:00:00 27,3 10,1 6 4 18 10 SSW 1017,4 34 0,0
17.07.2018 09:00:00 25,4 10,9 6 4 16 9 S 1017,7 44 0,0
17.07.2018 08:00:00 23,4 12,4 4 2 13 7 ESE 1017,8 48 0,0
17.07.2018 07:00:00 21,3 13,3 3 2 8 4 ESE 1017,9 47 0,0
17.07.2018 06:00:00 16,9 13,1 4 2 7 4 ESE 1018,3 46 0,0
17.07.2018 05:00:00 14,6 11,9 3 2 7 4 ENE 1018,4 41 0,0
17.07.2018 04:00:00 13,3 11,3 3 2 6 3 ENE 1018,5 49 0,0
17.07.2018 03:00:00 13,5 11,9 2 1 5 3 ENE - 48 0,0
17.07.2018 02:00:00 15,0 11,7 3 2 5 3 ENE 1017,8 50 0,0
17.07.2018 01:00:00 15,8 12,0 3 2 6 3 NE - 48 0,0
17.07.2018 00:00:00 17,2 12,1 3 2 8 4 ENE 1017,1 49 0,0
16.07.2018 23:00:00 20,9 12,6 5 3 8 4 ESE 1016,1 16 0,0
16.07.2018 22:00:00 23,5 12,6 5 3 15 8 SE 1015,4 50 0,0
16.07.2018 21:00:00 26,2 12,3 8 4 22 12 SE 1014,8 50 0,0
16.07.2018 20:00:00 28,0 12,0 9 5 27 15 SE 1014,4 46 0,0
16.07.2018 19:00:00 29,4 11,5 9 5 24 13 SE 1014,0 47 0,0
16.07.2018 18:00:00 30,7 9,6 9 5 19 10 SSE 1013,8 32 0,0
16.07.2018 17:00:00 29,3 9,5 4 2 20 11 SSE 1014,0 35 0,0
16.07.2018 16:00:00 31,0 9,3 9 5 22 12 SE 1014,0 44 0,0
16.07.2018 15:00:00 30,2 9,7 9 5 19 11 W 1014,4 40 0,0
16.07.2018 14:00:00 29,4 10,5 8 4 21 12 S 1015,0 38 0,0
16.07.2018 13:00:00 29,1 10,3 9 5 24 13 SW 1015,3 35 0,0
16.07.2018 12:00:00 28,1 11,7 7 4 23 13 S 1015,6 41 0,0
16.07.2018 11:00:00 26,4 11,8 7 4 23 12 ESE 1016,0 48 0,0
16.07.2018 10:00:00 25,1 11,3 9 5 17 9 SE 1016,4 46 0,0
16.07.2018 09:00:00 23,8 11,5 9 5 21 11 ESE 1016,8 42 0,0
16.07.2018 08:00:00 21,5 12,1 4 2 9 5 E 1017,1 39 0,0
16.07.2018 07:00:00 17,6 12,9 3 1 6 3 NE 1017,7 49 0,0
16.07.2018 06:00:00 15,0 11,7 2 1 5 3 E 1017,9 50 0,0
16.07.2018 05:00:00 12,4 11,4 3 2 7 4 ESE 1018,0 49 0,0
16.07.2018 04:00:00 11,0 9,6 1 1 13 7 ESE 1018,0 50 0,0
16.07.2018 03:00:00 12,1 10,2 4 2 11 6 NNE 1017,7 50 0,0
16.07.2018 02:00:00 12,0 9,7 3 1 9 5 NNE 1017,5 50 0,0
16.07.2018 01:00:00 13,3 10,1 2 1 6 3 ENE 1017,1 50 0,0
16.07.2018 00:00:00 14,2 10,2 1 1 5 3 N 1016,6 50 0,0
15.07.2018 23:00:00 15,7 10,9 1 1 4 2 NNE 1016,0 50 0,0
15.07.2018 22:00:00 19,1 10,9 2 1 9 5 N 1015,1 50 0,0
15.07.2018 21:00:00 21,7 10,5 1 1 9 5 N 1014,4 50 0,0
15.07.2018 20:00:00 24,7 11,0 2 1 12 7 W 1013,9 50 0,0
15.07.2018 19:00:00 25,9 8,5 5 3 15 8 NNW 1013,6 43 0,0
15.07.2018 18:00:00 25,5 8,5 4 2 17 9 WNW 1013,6 50 0,0
15.07.2018 17:00:00 27,5 8,9 4 2 16 8 WNW 1013,2 42 0,0
15.07.2018 16:00:00 25,7 7,3 7 4 17 9 NNW 1013,2 46 0,0
15.07.2018 15:00:00 25,9 7,5 6 4 14 8 N 1013,0 45 0,0
15.07.2018 14:00:00 26,0 8,1 5 3 15 8 W 1013,0 45 0,0
15.07.2018 13:00:00 25,3 9,2 5 3 18 10 N 1012,9 42 0,0
15.07.2018 12:00:00 24,4 10,0 6 3 16 9 N 1013,0 46 0,0
15.07.2018 11:00:00 23,7 11,4 6 3 14 7 W 1013,0 33 0,0
15.07.2018 10:00:00 22,0 12,9 4 2 14 8 WNW 1013,1 38 0,0
15.07.2018 09:00:00 21,5 12,1 4 2 12 6 WNW 1012,9 30 0,0
15.07.2018 08:00:00 18,9 13,8 5 3 12 7 W 1012,7 43 0,0
15.07.2018 07:00:00 16,9 13,3 7 4 13 7 W 1013,0 43 0,0
15.07.2018 06:00:00 15,0 12,3 2 1 7 4 SSW 1012,6 50 0,0
15.07.2018 05:00:00 13,7 11,4 3 2 9 5 WSW 1012,6 50 0,0
15.07.2018 04:00:00 12,6 11,5 3 1 5 3 WNW 1012,7 50 0,0
15.07.2018 03:00:00 12,9 11,3 2 1 8 4 E 1012,4 50 0,0
15.07.2018 02:00:00 13,0 11,4 3 1 6 4 SE 1012,2 48 0,0
15.07.2018 01:00:00 13,7 11,3 3 2 8 4 E 1012,0 49 0,0
15.07.2018 00:00:00 15,4 11,6 1 1 4 2 W 1011,7 50 0,0
14.07.2018 23:00:00 16,9 11,9 1 1 5 3 ENE 1011,2 50 0,0
14.07.2018 22:00:00 19,6 13,1 1 1 7 4 NNE 1010,7 50 0,0

tt = Température de l'air
td = dewpoint
ff = Vitesse du vent
fx = gusts
dd = Direction du vent
ppp = reduced air pressure
vv = visibility
rr = Quantités de précipitations

stations d'obs. à proximité